�N����,����,�g�[���i���ԁj���x,�g�[�����x,��g�[���i���ցj���x,����
 2003/08/01, 0:00,27.1,64,27,27.6
 2003/08/01, 0:15,27,64.5,26.9,27.6
 2003/08/01, 0:30,27,65,26.8,27.6
 2003/08/01, 0:45,26.9,65.5,26.8,27.5
 2003/08/01, 1:00,26.8,65,26.7,27.5
 2003/08/01, 1:15,26.8,65.5,26.6,27.5
 2003/08/01, 1:30,26.6,66,26.4,27.4
 2003/08/01, 1:45,26.5,66,26.4,27.4
 2003/08/01, 2:00,26.5,66,26.3,27.3
 2003/08/01, 2:15,26.4,66,26.3,27.3
 2003/08/01, 2:30,26.3,66,26.2,27.2
 2003/08/01, 2:45,26.1,67,26.1,27.2
 2003/08/01, 3:00,26.1,67,26.1,27.1
 2003/08/01, 3:15,26,67.5,25.9,27.1
 2003/08/01, 3:30,26,68,25.9,27
 2003/08/01, 3:45,25.9,68,25.9,27
 2003/08/01, 4:00,25.8,68,25.8,26.9
 2003/08/01, 4:15,25.8,68.5,25.7,26.9
 2003/08/01, 4:30,25.6,69,25.6,26.8
 2003/08/01, 4:45,25.5,69,25.5,26.8
 2003/08/01, 5:00,25.5,69,25.5,26.7
 2003/08/01, 5:15,25.5,69,25.4,26.7
 2003/08/01, 5:30,25.5,69,25.3,26.6
 2003/08/01, 5:45,25.3,70,25.3,26.6
 2003/08/01, 6:00,25.3,70,25.3,26.5
 2003/08/01, 6:15,25.3,70,25.3,26.5
 2003/08/01, 6:30,25.2,70,25.3,26.4
 2003/08/01, 6:45,25.2,70,25.4,26.4
 2003/08/01, 7:00,25.3,70,25.4,26.4
 2003/08/01, 7:15,25.4,70,25.5,26.3
 2003/08/01, 7:30,25.5,70,25.6,26.3
 2003/08/01, 7:45,25.8,69.5,25.6,25.8
 2003/08/01, 8:00,26.2,69,25.8,24.8
 2003/08/01, 8:15,26.5,68.5,26,24.8
 2003/08/01, 8:30,26.7,68,26.1,24.8
 2003/08/01, 8:45,27,66.5,26.1,24.9
 2003/08/01, 9:00,27.2,65,26.3,24.9
 2003/08/01, 9:15,27.4,65,26.5,24.9
 2003/08/01, 9:30,27.7,65,26.6,24.9
 2003/08/01, 9:45,27.9,64,26.8,25
 2003/08/01,10:00,28.1,64,27,25
 2003/08/01,10:15,28.2,64,27.1,25
 2003/08/01,10:30,28.4,64,27.4,25
 2003/08/01,10:45,28.6,63,27.6,25.1
 2003/08/01,11:00,28.9,63,27.8,25.1
 2003/08/01,11:15,29,63,28,25.2
 2003/08/01,11:30,29.3,63,28.4,25.2
 2003/08/01,11:45,29.5,62.5,28.6,25.2
 2003/08/01,12:00,29.7,62,28.9,25.3
 2003/08/01,12:15,29.7,63,29.1,25.4
 2003/08/01,12:30,29.8,62,29.3,25.5
 2003/08/01,12:45,30.5,56.5,29.6,25.5
 2003/08/01,13:00,30.8,56,29.9,25.6
 2003/08/01,13:15,31,55,30.2,25.6
 2003/08/01,13:30,31.4,53,30.5,25.6
 2003/08/01,13:45,31.4,50,30.6,25.8
 2003/08/01,14:00,31.8,47,31,25.9
 2003/08/01,14:15,31.8,51.5,31.2,26
 2003/08/01,14:30,31.8,48,31.5,26.1
 2003/08/01,14:45,32.1,50,31.8,26.2
 2003/08/01,15:00,32.3,50,32.1,26.3
 2003/08/01,15:15,32.3,49,32.7,26.5
 2003/08/01,15:30,32.7,48,33,26.5
 2003/08/01,15:45,32.7,47.5,33.9,26.6
 2003/08/01,16:00,32.7,48,34.8,26.7
 2003/08/01,16:15,32.8,49,35.3,26.9
 2003/08/01,16:30,32.9,48,35.6,26.9
 2003/08/01,16:45,32.8,50,35.8,27
 2003/08/01,17:00,33,49,35.4,27.2
 2003/08/01,17:15,32,49,34.7,27.4
 2003/08/01,17:30,32,49,33.3,27.5
 2003/08/01,17:45,31.5,52,32.5,27.5
 2003/08/01,18:00,31.2,54,32.1,27.7
 2003/08/01,18:15,31,55.5,31.7,27.9
 2003/08/01,18:30,30.6,57,31.4,27.9
 2003/08/01,18:45,30.7,58,31.1,28
 2003/08/01,19:00,30.7,58,31,28.1
 2003/08/01,19:15,30.5,59,30.8,28.2
 2003/08/01,19:30,30.2,60,30.6,28.3
 2003/08/01,19:45,30.2,60,30.5,28.4
 2003/08/01,20:00,30.1,61,30.6,28.5
 2003/08/01,20:15,30.1,61,30.5,28.5
 2003/08/01,20:30,30.1,61,30.4,28.6
 2003/08/01,20:45,30.1,61.5,30.3,28.7
 2003/08/01,21:00,30.2,62,30.2,28.7
 2003/08/01,21:15,30.1,62,30.1,28.8
 2003/08/01,21:30,30,63,30.1,28.8
 2003/08/01,21:45,30,63,30,28.9
 2003/08/01,22:00,29.8,64,29.9,28.9
 2003/08/01,22:15,29.9,64,29.8,29
 2003/08/01,22:30,29.8,64,29.7,29
 2003/08/01,22:45,29.8,64,29.6,27.5
 2003/08/01,23:00,29.7,65,29.5,26
 2003/08/01,23:15,29.5,64.5,29.5,26.1
 2003/08/01,23:30,29.4,65,29.3,26.1
 2003/08/01,23:45,29.4,65.5,29.2,26.2
 2003/08/02, 0:00,29.2,66,29.1,26.1
 2003/08/02, 0:15,29.5,66,29.1,26.3
 2003/08/02, 0:30,29.6,67,29.1,26.4
 2003/08/02, 0:45,29.4,66.5,29.1,26.5
 2003/08/02, 1:00,29.2,67,29.1,26.5
 2003/08/02, 1:15,29,67,29,26.5
 2003/08/02, 1:30,28.9,67,28.9,26.6
 2003/08/02, 1:45,28.8,67.5,28.8,26.6
 2003/08/02, 2:00,28.7,68,28.7,26.7
 2003/08/02, 2:15,28.6,68,28.6,26.7
 2003/08/02, 2:30,28.6,68,28.6,26.8
 2003/08/02, 2:45,28.6,68,28.5,26.8
 2003/08/02, 3:00,28.6,69,28.5,26.8
 2003/08/02, 3:15,28.5,69.5,28.5,26.8
 2003/08/02, 3:30,28.4,70,28.4,26.9
 2003/08/02, 3:45,28.3,70,28.4,26.9
 2003/08/02, 4:00,28.2,70,28.2,26.9
 2003/08/02, 4:15,28.2,70,28.2,27
 2003/08/02, 4:30,28.2,70,28.2,27
 2003/08/02, 4:45,28.2,70.5,28.1,27
 2003/08/02, 5:00,28.1,71,28.1,27
 2003/08/02, 5:15,28,71,28.1,27
 2003/08/02, 5:30,28,71,28,27
 2003/08/02, 5:45,28,71,28,26.1
 2003/08/02, 6:00,27.9,71,28,25.5
 2003/08/02, 6:15,27.9,71,28,25.5
 2003/08/02, 6:30,27.9,71,27.9,25.5
 2003/08/02, 6:45,27.9,71,28,25.5
 2003/08/02, 7:00,27.9,71,28,25.6
 2003/08/02, 7:15,28,71,28,25.6
 2003/08/02, 7:30,28,71,28.1,25.6
 2003/08/02, 7:45,28.1,70,28.1,25.7
 2003/08/02, 8:00,28.3,70,28.2,25.7
 2003/08/02, 8:15,28.5,69,28.3,25.8
 2003/08/02, 8:30,28.5,69,28.3,25.8
 2003/08/02, 8:45,28.6,68.5,28.5,25.9
 2003/08/02, 9:00,28.9,68,28.7,25.9
 2003/08/02, 9:15,29.1,67.5,28.8,26
 2003/08/02, 9:30,29.5,65,28.9,26
 2003/08/02, 9:45,29.8,64.5,29.2,26
 2003/08/02,10:00,29.9,63,29.3,25.3
 2003/08/02,10:15,27.5,54,29.3,25.4
 2003/08/02,10:30,27.6,47,29.4,25.4
 2003/08/02,10:45,27.4,42,29.5,25.5
 2003/08/02,11:00,27,40,29.5,25.3
 2003/08/02,11:15,26.8,43.5,29.4,25.5
 2003/08/02,11:30,27.6,51,29.5,25.6
 2003/08/02,11:45,28,59.5,29.5,25.6
 2003/08/02,12:00,28.1,59,29.7,25.7
 2003/08/02,12:15,28.2,57,29.9,25.7
 2003/08/02,12:30,28.3,56,30,25.6
 2003/08/02,12:45,28.2,50.5,30.2,25.8
 2003/08/02,13:00,28.5,54,30.3,25.8
 2003/08/02,13:15,28.1,49,30.5,25.9
 2003/08/02,13:30,28.7,51,30.8,26
 2003/08/02,13:45,28.4,48,30.9,26.1
 2003/08/02,14:00,28.3,45,31.2,26.2
 2003/08/02,14:15,29.1,54,31.4,26.3
 2003/08/02,14:30,29.8,54,31.7,26.4
 2003/08/02,14:45,29.5,47,32.1,26.5
 2003/08/02,15:00,29.1,42,32.6,26.6
 2003/08/02,15:15,29,41.5,33.2,26.7
 2003/08/02,15:30,29.1,42,33.9,26.8
 2003/08/02,15:45,29.2,41.5,35.2,27
 2003/08/02,16:00,29.3,43,36.1,27
 2003/08/02,16:15,29.4,43,36.8,27.1
 2003/08/02,16:30,29.4,42,37.2,27.3
 2003/08/02,16:45,29.4,41,37.5,27.4
 2003/08/02,17:00,29.3,41,37.4,27.5
 2003/08/02,17:15,29.1,40.5,36.7,27.1
 2003/08/02,17:30,29.1,41,34.6,26.9
 2003/08/02,17:45,29,40.5,33.4,26.9
 2003/08/02,18:00,28.9,44,32.6,27
 2003/08/02,18:15,28.8,43.5,32.2,27.1
 2003/08/02,18:30,28.7,42,31.8,27.3
 2003/08/02,18:45,28.6,41.5,31.5,27.4
 2003/08/02,19:00,28.4,43,31.3,27.4
 2003/08/02,19:15,28.4,42,31,27.5
 2003/08/02,19:30,28.4,48,30.8,27.6
 2003/08/02,19:45,28.8,56,30.8,27.7
 2003/08/02,20:00,28.7,54,30.6,27.8
 2003/08/02,20:15,28.2,48,30.5,27.9
 2003/08/02,20:30,28,46,30.3,28
 2003/08/02,20:45,27.8,44.5,30.2,28
 2003/08/02,21:00,27.5,43,30.1,28.1
 2003/08/02,21:15,27.2,42,30,27.1
 2003/08/02,21:30,27.4,45,29.9,27
 2003/08/02,21:45,27.8,48.5,29.8,27.1
 2003/08/02,22:00,28,51,29.7,27.2
 2003/08/02,22:15,28.2,52.5,29.6,27.2
 2003/08/02,22:30,28.6,59,29.5,27.3
 2003/08/02,22:45,28,50,29.5,27.4
 2003/08/02,23:00,27.6,49,29.4,27.5
 2003/08/02,23:15,27.5,49,29.3,27.5
 2003/08/02,23:30,27.8,58,29.1,27.6
 2003/08/02,23:45,28,61,29.1,27.6
 2003/08/03, 0:00,28.2,63,29.1,27.6
 2003/08/03, 0:15,28.3,64.5,29,27.6
 2003/08/03, 0:30,28.5,67,29,27.7
 2003/08/03, 0:45,28.6,68.5,29,27.7
 2003/08/03, 1:00,28.8,70,29,27.7
 2003/08/03, 1:15,28.7,70,29,27.8
 2003/08/03, 1:30,28.8,70,29,27.8
 2003/08/03, 1:45,28.9,70.5,29,27.9
 2003/08/03, 2:00,28.9,69,28.9,27.9
 2003/08/03, 2:15,28.9,69,28.9,27.9
 2003/08/03, 2:30,28.7,69,28.8,27.9
 2003/08/03, 2:45,28.7,69,28.8,26.3
 2003/08/03, 3:00,28.7,69,28.8,26.5
 2003/08/03, 3:15,28.7,70,28.8,26.5
 2003/08/03, 3:30,28.7,70,28.8,26.5
 2003/08/03, 3:45,28.7,70,28.7,26.5
 2003/08/03, 4:00,28.6,70,28.7,26.6
 2003/08/03, 4:15,28.6,70,28.6,26.6
 2003/08/03, 4:30,28.6,70,28.6,26.7
 2003/08/03, 4:45,28.5,70,28.5,26.7
 2003/08/03, 5:00,28.4,70,28.5,26.7
 2003/08/03, 5:15,28.4,70,28.4,26.8
 2003/08/03, 5:30,28.4,70,28.4,26.8
 2003/08/03, 5:45,28.4,70,28.4,26.8
 2003/08/03, 6:00,28.3,70,28.3,26.8
 2003/08/03, 6:15,28.3,70,28.4,26.9
 2003/08/03, 6:30,28.3,70,28.4,26.9
 2003/08/03, 6:45,28.3,70,28.5,26.9
 2003/08/03, 7:00,28.3,70,28.5,27
 2003/08/03, 7:15,28.3,70,28.5,27
 2003/08/03, 7:30,28.4,70,28.5,27
 2003/08/03, 7:45,28.5,70.5,28.5,27
 2003/08/03, 8:00,28.6,71,28.7,27.1
 2003/08/03, 8:15,28.6,70.5,28.8,27.1
 2003/08/03, 8:30,28.9,71,28.8,27.1
 2003/08/03, 8:45,29.1,70,29,27.1
 2003/08/03, 9:00,29.5,68,29.1,27.2
 2003/08/03, 9:15,29.9,68.5,29.4,27.2
 2003/08/03, 9:30,30.3,66,29.5,27.3
 2003/08/03, 9:45,30,60,29.5,27.3
 2003/08/03,10:00,29.5,54,29.7,27.3
 2003/08/03,10:15,29.2,51.5,29.7,27.4
 2003/08/03,10:30,28.9,49,29.7,26.3
 2003/08/03,10:45,29,50,29.8,26.2
 2003/08/03,11:00,29.1,50,29.9,26.3
 2003/08/03,11:15,28.8,49,30.1,26.4
 2003/08/03,11:30,28.7,49,30.3,26.5
 2003/08/03,11:45,28.8,48,30.5,26.5
 2003/08/03,12:00,28.8,51,30.5,26.1
 2003/08/03,12:15,29.2,54,30.8,26.2
 2003/08/03,12:30,29.2,50,30.9,26.3
 2003/08/03,12:45,29.1,50.5,31,26.4
 2003/08/03,13:00,29.1,46,31.1,26.5
 2003/08/03,13:15,29,46,31.4,26.5
 2003/08/03,13:30,28.9,44,31.6,26.6
 2003/08/03,13:45,29,43.5,31.9,26.6
 2003/08/03,14:00,29.5,48,32,26.7
 2003/08/03,14:15,29,44.5,32.2,26.9
 2003/08/03,14:30,28.8,42,32.2,27
 2003/08/03,14:45,29.4,45.5,32.5,27.1
 2003/08/03,15:00,29.8,44,32.5,27.2
 2003/08/03,15:15,30,46.5,32.9,27.4
 2003/08/03,15:30,30.2,47,33.9,27.4
 2003/08/03,15:45,30.5,49,35,27.5
 2003/08/03,16:00,30.7,51,36,27.7
 2003/08/03,16:15,30.8,52,36.8,27.8
 2003/08/03,16:30,30.9,51,37.1,27.9
 2003/08/03,16:45,31.7,56,37.1,28
 2003/08/03,17:00,31.8,55,36.4,28.1
 2003/08/03,17:15,31.7,55.5,35.2,28.2
 2003/08/03,17:30,31.7,56,33.8,26.7
 2003/08/03,17:45,31.5,58,33,26.7
 2003/08/03,18:00,31.2,59,32.4,26.4
 2003/08/03,18:15,31,59,32,26.7
 2003/08/03,18:30,30.8,58,31.7,26.7
 2003/08/03,18:45,30.8,59,31.5,26.9
 2003/08/03,19:00,30,53,31.3,26.9
 2003/08/03,19:15,29,47.5,31,27
 2003/08/03,19:30,28.7,45,31,27.1
 2003/08/03,19:45,28.4,44,30.9,27.2
 2003/08/03,20:00,28.2,45,30.7,27.3
 2003/08/03,20:15,28,45,30.6,27.5
 2003/08/03,20:30,27.8,44,30.5,27.5
 2003/08/03,20:45,27.7,45,30.4,27.6
 2003/08/03,21:00,27.7,44,30.2,27.7
 2003/08/03,21:15,27.5,45.5,30.1,27.8
 2003/08/03,21:30,27.4,47,30,27.8
 2003/08/03,21:45,27.3,47,29.9,27.9
 2003/08/03,22:00,27.3,49,29.8,28
 2003/08/03,22:15,27.2,49,29.7,28
 2003/08/03,22:30,27.1,49,29.6,28.1
 2003/08/03,22:45,27.1,50.5,29.5,28.1
 2003/08/03,23:00,27.8,60,29.3,28.2
 2003/08/03,23:15,28.2,65,29.3,28.2
 2003/08/03,23:30,28.4,67,29.3,28.3
 2003/08/03,23:45,28.6,68.5,29.3,28.4
 2003/08/04, 0:00,28.7,70,29.3,28.4
 2003/08/04, 0:15,28.9,70,29.3,28.4
 2003/08/04, 0:30,29,70,29.3,28.5
 2003/08/04, 0:45,29,70,29.3,28.5
 2003/08/04, 1:00,29,71,29.3,28.5
 2003/08/04, 1:15,29,71,29.3,28.5
 2003/08/04, 1:30,29.1,70,29.3,28.6
 2003/08/04, 1:45,29.1,70,29.3,27.6
 2003/08/04, 2:00,29.1,71,29.3,27.7
 2003/08/04, 2:15,29.9,69,29.3,27.7
 2003/08/04, 2:30,29.9,70,29.4,27.7
 2003/08/04, 2:45,29.5,70,29.4,27.8
 2003/08/04, 3:00,29.5,70,29.3,27.8
 2003/08/04, 3:15,29.5,70,29.3,27.8
 2003/08/04, 3:30,29.5,71,29.3,27.9
 2003/08/04, 3:45,29.5,71,29.3,27.9
 2003/08/04, 4:00,29.4,71,29.3,27.9
 2003/08/04, 4:15,29.4,71,29.2,27.9
 2003/08/04, 4:30,29.3,71,29.2,27.9
 2003/08/04, 4:45,29.3,71,29.1,28
 2003/08/04, 5:00,29.3,70,29.1,28
 2003/08/04, 5:15,29,70.5,29.1,28
 2003/08/04, 5:30,29,72,29,28
 2003/08/04, 5:45,29,72,29,28
 2003/08/04, 6:00,28.9,73,29,28
 2003/08/04, 6:15,28.9,72.5,29,28.1
 2003/08/04, 6:30,28.9,73,29,28.1
 2003/08/04, 6:45,28.9,73,29,28.1
 2003/08/04, 7:00,28.9,73,29,28.1
 2003/08/04, 7:15,28.9,73,29,28.1
 2003/08/04, 7:30,28.9,73,29.1,28.1
 2003/08/04, 7:45,29.1,74.5,29.1,27.5
 2003/08/04, 8:00,29.5,74,29.3,26.9
 2003/08/04, 8:15,29.4,73.5,29.3,26.9
 2003/08/04, 8:30,29.5,73,29.4,27
 2003/08/04, 8:45,29.5,72.5,29.5,27
 2003/08/04, 9:00,29.7,71,29.6,27.1
 2003/08/04, 9:15,30.1,68.5,29.8,27.1
 2003/08/04, 9:30,30.4,67,29.9,27.1
 2003/08/04, 9:45,30.5,67,30,27.1
 2003/08/04,10:00,30.7,66,30.1,27.2
 2003/08/04,10:15,30.9,64.5,30.4,27.2
 2003/08/04,10:30,31.3,63,30.5,27.3
 2003/08/04,10:45,31.5,63,30.6,27.3
 2003/08/04,11:00,31.7,62,30.9,27.4
 2003/08/04,11:15,31.9,60.5,31,27.4
 2003/08/04,11:30,32,60,31.2,27.5
 2003/08/04,11:45,32.2,59,31.4,27.5
 2003/08/04,12:00,32.2,58,31.5,27.6
 2003/08/04,12:15,32.2,58.5,31.7,27.4
 2003/08/04,12:30,32.5,59,31.9,27.1
 2003/08/04,12:45,32.7,58.5,32.1,27.2
 2003/08/04,13:00,33,57,32.3,27.3
 2003/08/04,13:15,33.2,55.5,32.5,27.2
 2003/08/04,13:30,33.2,53,32.9,27.4
 2003/08/04,13:45,33.2,54,32.9,27.5
 2003/08/04,14:00,33.6,53,33,27.5
 2003/08/04,14:15,33.7,52.5,33.2,27.5
 2003/08/04,14:30,34,50,33.3,27.8
 2003/08/04,14:45,34.2,48,33.3,27.9
 2003/08/04,15:00,34.4,48,33.9,28
 2003/08/04,15:15,34.8,49,34.5,28
 2003/08/04,15:30,35.1,49,35.3,28.2
 2003/08/04,15:45,35.1,50,36.2,28.2
 2003/08/04,16:00,35.2,51,36.9,28.4
 2003/08/04,16:15,35.5,50.5,37.5,28.5
 2003/08/04,16:30,35.4,49,37.5,28.6
 2003/08/04,16:45,35.5,49,37.5,28.6
 2003/08/04,17:00,35.6,48,37.2,28.8
 2003/08/04,17:15,35.2,48.5,36.6,28.9
 2003/08/04,17:30,34.6,50,34.8,28.9
 2003/08/04,17:45,34,53,33.8,29
 2003/08/04,18:00,33.5,55,33.1,29.1
 2003/08/04,18:15,33,56,32.8,29.2
 2003/08/04,18:30,32.7,57,32.3,29.3
 2003/08/04,18:45,32.5,57.5,32.2,29.4
 2003/08/04,19:00,32.2,59,32,29.5
 2003/08/04,19:15,32,59,31.8,29.6
 2003/08/04,19:30,31.7,59,31.5,29.7
 2003/08/04,19:45,31.5,59,31.4,29.8
 2003/08/04,20:00,31.4,59,31.2,29.8
 2003/08/04,20:15,31.2,58.5,31.1,29.9
 2003/08/04,20:30,31.1,58,31,29.9
 2003/08/04,20:45,31,58,31,30
 2003/08/04,21:00,30.9,58,30.9,30
 2003/08/04,21:15,30.9,58,30.8,30.1
 2003/08/04,21:30,30.8,59,30.7,30.2
 2003/08/04,21:45,30.8,60,30.6,30.2
 2003/08/04,22:00,30.7,61,30.7,30.2
 2003/08/04,22:15,30.8,62,30.6,30.3
 2003/08/04,22:30,30.8,63,30.7,30.4
 2003/08/04,22:45,30.8,64,30.6,30.4
 2003/08/04,23:00,30.8,64,30.6,30.4
 2003/08/04,23:15,30.4,59.5,30.5,30.5
 2003/08/04,23:30,29.7,50,30.4,30.5
 2003/08/04,23:45,29.1,45.5,30.3,30.5
 2003/08/05, 0:00,28.8,46,30.2,30.5
 2003/08/05, 0:15,28.5,44.5,30.2,30.5
 2003/08/05, 0:30,28.2,44,30.1,30.6
 2003/08/05, 0:45,28,43,30,30.6
 2003/08/05, 1:00,27.8,42,29.9,30.6
 2003/08/05, 1:15,27.5,42.5,29.9,30.6
 2003/08/05, 1:30,27.3,42,29.7,30.6
 2003/08/05, 1:45,27.4,48.5,29.6,30.6
 2003/08/05, 2:00,27.4,49,29.6,30.6
 2003/08/05, 2:15,27.1,49,29.5,30.6
 2003/08/05, 2:30,27.1,53,29.4,30.6
 2003/08/05, 2:45,27,52,29.4,30.6
 2003/08/05, 3:00,27.1,56,29.3,30.6
 2003/08/05, 3:15,27,56,29.2,30.6
 2003/08/05, 3:30,27.3,60,29.2,30.6
 2003/08/05, 3:45,27.7,59,29.1,30.5
 2003/08/05, 4:00,28.1,68,28.9,30.5
 2003/08/05, 4:15,28.1,70,28.9,30.5
 2003/08/05, 4:30,28.2,71,28.9,30.4
 2003/08/05, 4:45,28.4,70,28.9,30.4
 2003/08/05, 5:00,28.4,68,28.9,30.4
 2003/08/05, 5:15,28.4,69,28.9,30.3
 2003/08/05, 5:30,28.5,68,28.9,30.3
 2003/08/05, 5:45,28.5,68,28.9,30.2
 2003/08/05, 6:00,28.6,67,28.9,30.2
 2003/08/05, 6:15,28.5,67.5,28.9,30.2
 2003/08/05, 6:30,28.5,67,28.9,30.1
 2003/08/05, 6:45,28.6,67.5,29,30.1
 2003/08/05, 7:00,28.6,68,29.1,30.1
 2003/08/05, 7:15,28.8,67,29.1,30
 2003/08/05, 7:30,29,71,29.2,30
 2003/08/05, 7:45,29.4,71,29.3,27.5
 2003/08/05, 8:00,29.6,72,29.5,27.5
 2003/08/05, 8:15,29.7,71,29.5,27.5
 2003/08/05, 8:30,29.9,69,29.6,27.6
 2003/08/05, 8:45,30.2,68.5,29.8,27.7
 2003/08/05, 9:00,30.5,67,29.9,27.7
 2003/08/05, 9:15,30.7,66,30,27.7
 2003/08/05, 9:30,30.9,65,30.3,27.8
 2003/08/05, 9:45,31,64.5,30.4,27.8
 2003/08/05,10:00,31.2,64,30.6,27.9
 2003/08/05,10:15,31.6,62.5,30.8,27.9
 2003/08/05,10:30,31.8,62,30.9,27.9
 2003/08/05,10:45,32,61,31,28
 2003/08/05,11:00,32.2,61,31.4,28
 2003/08/05,11:15,32.4,60,31.7,28.1
 2003/08/05,11:30,32.5,59,31.7,28.1
 2003/08/05,11:45,32.6,59,31.9,28.2
 2003/08/05,12:00,32.9,57,32,28.2
 2003/08/05,12:15,33.2,55,32.2,28.3
 2003/08/05,12:30,33.2,54,32.2,28.4
 2003/08/05,12:45,33.7,50.5,32.5,28.4
 2003/08/05,13:00,34,50,32.6,28.4
 2003/08/05,13:15,34,49.5,32.8,28.5
 2003/08/05,13:30,33.9,48,33.1,28.6
 2003/08/05,13:45,34.2,49,33.4,28.6
 2003/08/05,14:00,34.6,49,33.7,28.7
 2003/08/05,14:15,35.1,49,34.1,28.9
 2003/08/05,14:30,35.6,48,34.5,28.9
 2003/08/05,14:45,35.6,47.5,34.5,29
 2003/08/05,15:00,35.3,49,34.3,29.1
 2003/08/05,15:15,35,49,34.1,29.2
 2003/08/05,15:30,34.3,51,33.7,29.3
 2003/08/05,15:45,33.8,52.5,33.2,29.4
 2003/08/05,16:00,33.5,53,33.1,29.5
 2003/08/05,16:15,33.3,54,33.4,29.5
 2003/08/05,16:30,33.5,53,34,29.6
 2003/08/05,16:45,33.5,52.5,34.5,29.8
 2003/08/05,17:00,33.7,52,34.9,29.8
 2003/08/05,17:15,33.5,50.5,33.8,29.9
 2003/08/05,17:30,33.2,52,33.1,30
 2003/08/05,17:45,33,53,32.9,30
 2003/08/05,18:00,32.8,54,32.7,30.2
 2003/08/05,18:15,32.3,55,32.5,30.2
 2003/08/05,18:30,32.2,56,32.3,30.4
 2003/08/05,18:45,32.2,55,32,30.5
 2003/08/05,19:00,32,55,31.9,30.5
 2003/08/05,19:15,32,56,31.9,30.6
 2003/08/05,19:30,32,58,31.7,30.7
 2003/08/05,19:45,32,58,31.7,30.8
 2003/08/05,20:00,32,59,31.7,30.8
 2003/08/05,20:15,31.8,58,31.6,30.9
 2003/08/05,20:30,31.6,59,31.5,31
 2003/08/05,20:45,31.4,58.5,31.4,31
 2003/08/05,21:00,31.2,58,31.2,31.1
 2003/08/05,21:15,31,56.5,31,31.1
 2003/08/05,21:30,30.8,56,30.9,31.2
 2003/08/05,21:45,30.6,54.5,30.6,31.3
 2003/08/05,22:00,30.6,53,30.5,29
 2003/08/05,22:15,30.5,54,30.4,29.1
 2003/08/05,22:30,30.3,53,30.2,29.2
 2003/08/05,22:45,29.5,46.5,30.1,29.2
 2003/08/05,23:00,28.6,44,30.1,29.2
 2003/08/05,23:15,28.4,44,29.9,29.3
 2003/08/05,23:30,28.2,44,29.9,29.3
 2003/08/05,23:45,28,43,29.8,29.4
 2003/08/06, 0:00,27.8,43,29.7,29.4
 2003/08/06, 0:15,27.5,43.5,29.6,29.4
 2003/08/06, 0:30,27.3,45,29.5,29.4
 2003/08/06, 0:45,27,45,29.5,29.4
 2003/08/06, 1:00,26.9,46,29.3,29.4
 2003/08/06, 1:15,26.8,47.5,29.3,29.5
 2003/08/06, 1:30,26.7,49,29.2,29.5
 2003/08/06, 1:45,26.7,49,29.2,29.5
 2003/08/06, 2:00,26.6,50,29.3,29.5
 2003/08/06, 2:15,26.8,54,29.2,29.5
 2003/08/06, 2:30,26.8,51,29.2,29.5
 2003/08/06, 2:45,26.8,51.5,29,29.5
 2003/08/06, 3:00,27.4,66,28.7,27.6
 2003/08/06, 3:15,28,64.5,28.6,27.6
 2003/08/06, 3:30,28.1,66,28.7,27.7
 2003/08/06, 3:45,28.2,65,28.7,27.7
 2003/08/06, 4:00,28.3,64,28.7,27.7
 2003/08/06, 4:15,28.4,67,28.7,27.8
 2003/08/06, 4:30,28.4,68,28.6,27.8
 2003/08/06, 4:45,28.4,68.5,28.6,27.8
 2003/08/06, 5:00,28.4,67,28.6,27.8
 2003/08/06, 5:15,28.4,66.5,28.6,27.9
 2003/08/06, 5:30,28.5,66,28.5,27.9
 2003/08/06, 5:45,28.4,66,28.5,27.9
 2003/08/06, 6:00,28.4,66,28.6,27.9
 2003/08/06, 6:15,28.4,66.5,28.6,27.9
 2003/08/06, 6:30,28.4,67,28.7,28
 2003/08/06, 6:45,28.5,67.5,28.7,28
 2003/08/06, 7:00,28.6,68,28.7,28
 2003/08/06, 7:15,28.6,71,28.9,28
 2003/08/06, 7:30,28.9,72,29.1,27
 2003/08/06, 7:45,29.2,71,29.2,27.1
 2003/08/06, 8:00,29.5,71,29.4,27.2
 2003/08/06, 8:15,29.7,68.5,29.5,27.2
 2003/08/06, 8:30,29.7,69,29.6,27.2
 2003/08/06, 8:45,29.9,68,29.7,27.3
 2003/08/06, 9:00,29.9,68,29.9,27.3
 2003/08/06, 9:15,30,67.5,30,27.4
 2003/08/06, 9:30,30,68,30.1,27.4
 2003/08/06, 9:45,30.4,67,30.2,27.4
 2003/08/06,10:00,29.7,61,30.4,27.5
 2003/08/06,10:15,28.2,57.5,30.4,27.5
 2003/08/06,10:30,28.7,64,30.3,27.5
 2003/08/06,10:45,28.3,58,30.5,27.6
 2003/08/06,11:00,28.2,55,30.6,27.6
 2003/08/06,11:15,28.1,54,30.7,27.7
 2003/08/06,11:30,27.8,53,30.8,27.7
 2003/08/06,11:45,28.4,59.5,30.9,27.8
 2003/08/06,12:00,28.2,59,31.1,27.9
 2003/08/06,12:15,28.4,56.5,31.2,28
 2003/08/06,12:30,29.4,56,31.3,28
 2003/08/06,12:45,29.6,51,31.5,28
 2003/08/06,13:00,29,52,31.4,28
 2003/08/06,13:15,27.8,50.5,31.4,28
 2003/08/06,13:30,27.8,56,31.9,28
 2003/08/06,13:45,29.4,52,32.5,28
 2003/08/06,14:00,30,52,32.7,27.8
 2003/08/06,14:15,30.4,52,32.8,27.4
 2003/08/06,14:30,30.6,51,33,27.5
 2003/08/06,14:45,30.7,51,33.5,27.5
 2003/08/06,15:00,30.9,51,34,27.6
 2003/08/06,15:15,31,50.5,34.5,27.6
 2003/08/06,15:30,31.2,51,35.4,28.3
 2003/08/06,15:45,31.3,52,36.5,28.5
 2003/08/06,16:00,31.4,51,37.7,28.5
 2003/08/06,16:15,31.5,51,38.5,29
 2003/08/06,16:30,31.8,51,39,29.1
 2003/08/06,16:45,31.9,52.5,39.2,29.2
 2003/08/06,17:00,31.8,51,39.2,29.3
 2003/08/06,17:15,31.8,49,38.3,29.4
 2003/08/06,17:30,31.7,50,35.9,29.5
 2003/08/06,17:45,31.6,49.5,34.5,29.5
 2003/08/06,18:00,31.6,49,33.9,29.6
 2003/08/06,18:15,31.6,50,33.5,29.7
 2003/08/06,18:30,31.6,51,33.1,29.8
 2003/08/06,18:45,31.5,52,32.8,29.9
 2003/08/06,19:00,31.4,52,32.5,30
 2003/08/06,19:15,31.4,53,32.3,30.1
 2003/08/06,19:30,31.2,52,32.1,30.2
 2003/08/06,19:45,31.2,59,32,30.3
 2003/08/06,20:00,31,59,31.7,30.4
 2003/08/06,20:15,31,59.5,31.6,30.5
 2003/08/06,20:30,31,61,31.4,30.5
 2003/08/06,20:45,30.9,61.5,31.3,30.6
 2003/08/06,21:00,30.7,61,31.2,30.6
 2003/08/06,21:15,30.4,53,31,30.7
 2003/08/06,21:30,29.7,39,30.9,30.8
 2003/08/06,21:45,29.5,41.5,30.8,30.8
 2003/08/06,22:00,29.7,47,30.7,30.9
 2003/08/06,22:15,29.8,48.5,30.6,30.9
 2003/08/06,22:30,29.5,48,30.6,30.9
 2003/08/06,22:45,29.5,49,30.5,31
 2003/08/06,23:00,29.5,49,30.4,31
 2003/08/06,23:15,29.4,48.5,30.3,31
 2003/08/06,23:30,29.3,46,30.2,31
 2003/08/06,23:45,29.2,47,30.1,31.1
 2003/08/07, 0:00,29.1,46,30,31.1
 2003/08/07, 0:15,29.1,47,29.9,31.1
 2003/08/07, 0:30,29,48,29.8,31.1
 2003/08/07, 0:45,29,48,29.7,31.1
 2003/08/07, 1:00,28.9,48,29.8,31.1
 2003/08/07, 1:15,28.9,49,29.8,31.1
 2003/08/07, 1:30,28.8,48,29.7,31.1
 2003/08/07, 1:45,28.8,48,29.7,31.1
 2003/08/07, 2:00,28.8,49,29.6,31.1
 2003/08/07, 2:15,28.9,53.5,29.5,31.1
 2003/08/07, 2:30,28.9,57,29.5,31
 2003/08/07, 2:45,29.2,64.5,29.5,31
 2003/08/07, 3:00,29.3,66,29.5,31
 2003/08/07, 3:15,29.3,66,29.5,31
 2003/08/07, 3:30,29.3,66,29.5,30.9
 2003/08/07, 3:45,29.4,65,29.5,30.9
 2003/08/07, 4:00,29.3,64,29.4,30.9
 2003/08/07, 4:15,29.3,65,29.4,30.8
 2003/08/07, 4:30,29.3,65,29.3,30.8
 2003/08/07, 4:45,29.2,65,29.3,30.8
 2003/08/07, 5:00,29.2,66,29.3,30.7
 2003/08/07, 5:15,29.1,66,29.3,30.6
 2003/08/07, 5:30,29.2,66,29.2,30.6
 2003/08/07, 5:45,29.1,66.5,29.2,30.5
 2003/08/07, 6:00,29.1,67,29.2,30.5
 2003/08/07, 6:15,29.1,67,29.2,30.5
 2003/08/07, 6:30,29.2,67,29.3,30.4
 2003/08/07, 6:45,29.1,67,29.3,30.4
 2003/08/07, 7:00,29.1,66,29.3,27.3
 2003/08/07, 7:15,29.2,66.5,29.4,27.4
 2003/08/07, 7:30,29.3,67,29.5,27.4
 2003/08/07, 7:45,29.3,68,29.5,27.5
 2003/08/07, 8:00,29.4,68,29.5,27.5
 2003/08/07, 8:15,29.4,67.5,29.5,27.4
 2003/08/07, 8:30,29.4,68,29.6,27.4
 2003/08/07, 8:45,29.5,69,29.6,27.5
 2003/08/07, 9:00,29.5,69,29.8,27.5
 2003/08/07, 9:15,29.6,69,29.9,27.5
 2003/08/07, 9:30,29.8,68,30,27.5
 2003/08/07, 9:45,30.1,66.5,30.1,27.6
 2003/08/07,10:00,30.5,65,30.3,27.6
 2003/08/07,10:15,30.8,63.5,30.5,27.7
 2003/08/07,10:30,31.1,63,30.7,27.7
 2003/08/07,10:45,31.2,62,30.9,27.8
 2003/08/07,11:00,31.3,62,30.9,27.8
 2003/08/07,11:15,31.3,62,31.1,27.9
 2003/08/07,11:30,31.3,62,31.3,27
 2003/08/07,11:45,31.6,61.5,31.6,27
 2003/08/07,12:00,32.3,59,31.8,27.1
 2003/08/07,12:15,32,59,31.9,27.2
 2003/08/07,12:30,32,59,31.9,27.3
 2003/08/07,12:45,32,59,31.9,27.4
 2003/08/07,13:00,32.1,59,32.1,27.4
 2003/08/07,13:15,32.1,59,32,27.5
 2003/08/07,13:30,32,59,32,27.5
 2003/08/07,13:45,32.1,59,32,27.6
 2003/08/07,14:00,32,59,32,27.7
 2003/08/07,14:15,32,59.5,32.1,27.9
 2003/08/07,14:30,32.1,60,32.1,27.9
 2003/08/07,14:45,32.1,60.5,32.2,28
 2003/08/07,15:00,32.1,61,32.2,28
 2003/08/07,15:15,32,61,32,28.1
 2003/08/07,15:30,31.9,61,32,28.2
 2003/08/07,15:45,31.7,61,31.9,28.3
 2003/08/07,16:00,31.5,60,31.7,28.4
 2003/08/07,16:15,31.4,61,31.5,28.5
 2003/08/07,16:30,31.4,61,31.5,28.5
 2003/08/07,16:45,31.2,62,31.4,28.6
 2003/08/07,17:00,31.1,61,31.2,28.6
 2003/08/07,17:15,31,61,31.1,28.7
 2003/08/07,17:30,30.9,61,31.1,28.8
 2003/08/07,17:45,30.8,60,31,28.8
 2003/08/07,18:00,30.8,60,30.9,28.9
 2003/08/07,18:15,30.8,60,30.8,29
 2003/08/07,18:30,30.6,61,30.7,29
 2003/08/07,18:45,30.5,62,30.5,29
 2003/08/07,19:00,30.6,64,30.5,29.1